INDEKS ZAGROŻENIA POŻAROWEGO (FWI)
Indeks zagrożenia pożarowego za ostatnie 365 dni


Legenda:
Niskie (0-210)
B.Wysokie (490 - 630)

Umiark. (210 - 350)
Extremalne (630+)

Wysokie (350 - 490)


40.54
Date Temp. (°C) Wind Speed (km/h) Rain (mm) RH% Days Since Rain pwsFWI
Prognozy zagrożenia pożarowego - wartości ponad czerwoną linią.
14/12/19 4,00 20,00 0,00 0,85 1 29,46
13/12/19 1,00 28,00 0,20 0,71 0 23,58
12/12/19 1,00 17,00 0,00 0,76 2 14,92
11/12/19 1,00 23,00 0,00 0,75 1 21,34
10/12/19 5,00 25,00 1,70 0,81 0 26,83
09/12/19 7,60 31,60 2,70 0,70 0 40,54
08/12/19 8,00 32,20 1,80 0,77 0 47,41
07/12/19 7,00 37,00 11,10 0,77 0 45,15
06/12/19 3,10 28,90 0,30 0,71 0 39,74
05/12/19 4,50 19,60 0,00 0,70 3 30,51
04/12/19 5,90 19,50 0,00 0,78 2 19,05
03/12/19 2,50 20,10 0,00 0,70 1 18,92
02/12/19 2,30 0,40 3,00 0,82 0 9,42
01/12/19 2,20 0,50 0,00 0,81 2 11,48
30/11/19 3,40 1,20 0,00 0,70 1 10,96
29/11/19 8,10 29,20 7,20 0,73 0 19,66
28/11/19 9,30 15,10 0,30 0,75 0 19,32
27/11/19 6,10 0,00 0,30 0,90 0 16,66
26/11/19 3,10 0,00 0,00 0,88 4 27,39
25/11/19 1,00 0,00 0,00 0,85 3 31,49
24/11/19 1,90 18,20 0,00 0,82 2 46,02
23/11/19 2,10 16,30 0,00 0,77 1 48,69
22/11/19 4,80 18,90 0,90 0,81 0 53,25
21/11/19 8,20 19,90 0,30 0,84 0 62,45
20/11/19 7,90 15,50 0,00 0,84 2 65,75
19/11/19 8,80 18,30 0,00 0,62 1 59,47
18/11/19 9,70 18,10 0,60 0,81 0 42,74
17/11/19 9,60 15,20 0,00 0,70 3 37,47
16/11/19 10,80 20,50 0,00 0,71 2 31,16
15/11/19 8,20 19,90 0,00 0,81 1 22,27
14/11/19 6,00 16,70 2,70 0,80 0 8,69
13/11/19 6,10 11,20 13,20 0,89 0 12,13
12/11/19 6,30 12,60 6,60 0,81 0 15,37
11/11/19 4,70 13,60 0,00 0,76 2 15,84
10/11/19 7,60 15,60 0,00 0,77 1 16,75
09/11/19 8,00 15,20 8,10 0,86 0 9,79
08/11/19 7,90 14,30 0,00 0,81 2 14,77
07/11/19 8,90 5,20 0,00 0,79 1 7,98
06/11/19 7,40 9,30 2,10 0,84 0 20,12
05/11/19 9,20 15,10 1,80 0,84 0 31,77
04/11/19 11,40 14,80 9,90 0,87 0 42,02
03/11/19 10,70 12,50 0,30 0,86 0 56,44
02/11/19 9,80 16,60 4,50 0,66 0 58,77
01/11/19 7,30 15,00 0,00 0,54 2 53,94
31/10/19 5,90 15,10 0,00 0,63 1 74,61
30/10/19 7,30 11,80 0,30 0,53 0 97,91
29/10/19 8,00 15,70 0,00 0,52 1 92,80
28/10/19 9,00 18,80 3,00 0,76 0 90,64
27/10/19 13,80 30,20 1,20 0,60 0 120,24
26/10/19 16,50 25,80 0,00 0,63 6 115,24
25/10/19 16,80 23,90 0,00 0,62 5 83,43
24/10/19 12,60 11,20 0,00 0,84 4 62,16
23/10/19 13,90 8,60 0,00 0,64 3 76,11
22/10/19 16,50 14,50 0,00 0,71 2 65,30
21/10/19 16,60 11,20 0,00 0,81 1 48,55
20/10/19 15,30 6,20 0,30 0,77 0 61,86
19/10/19 13,30 13,50 0,30 0,65 0 106,88
18/10/19 17,00 14,10 0,60 0,63 0 92,47
17/10/19 15,70 26,00 4,20 0,71 0 85,72
16/10/19 16,40 24,30 7,20 0,75 0 102,75
15/10/19 19,40 14,20 0,00 0,65 1 96,21
14/10/19 18,60 25,40 0,30 0,54 0 72,87
13/10/19 17,40 11,00 2,70 0,74 0 28,58
12/10/19 14,10 24,90 4,50 0,76 0 51,05
11/10/19 12,90 26,60 0,30 0,71 0 57,99
10/10/19 12,00 24,80 3,60 0,70 0 63,50
09/10/19 13,80 23,40 2,10 0,63 0 78,24
08/10/19 10,30 14,90 2,10 0,77 0 68,89
07/10/19 9,10 20,60 0,90 0,61 0 64,61
06/10/19 8,70 18,40 0,30 0,60 0 46,06
05/10/19 9,90 17,60 0,00 0,58 1 30,52
04/10/19 11,40 10,70 0,30 0,60 0 11,52
03/10/19 12,30 14,90 1,80 0,61 0 8,30
02/10/19 10,80 11,30 6,30 0,75 0 2,44
01/10/19 13,80 24,50 4,50 0,71 0 27,67
30/09/19 15,70 28,30 13,50 0,71 0 41,32
29/09/19 15,60 23,90 6,30 0,72 0 66,40
28/09/19 17,50 19,60 3,00 0,68 0 85,15
27/09/19 16,80 11,40 14,10 0,74 0 107,73
26/09/19 20,10 9,00 0,00 0,61 4 107,96
25/09/19 16,50 12,60 0,00 0,68 3 90,48
24/09/19 17,70 15,50 0,00 0,57 2 74,38
23/09/19 14,30 15,50 0,00 0,72 1 46,44
22/09/19 20,50 15,50 0,30 0,58 0 31,32
21/09/19 14,20 17,40 1,20 0,82 0 56,59
20/09/19 13,50 15,10 1,80 0,50 0 168,28
19/09/19 13,70 25,10 2,10 0,49 0 231,36
18/09/19 13,20 24,30 4,80 0,54 0 265,82
17/09/19 11,50 28,60 11,70 0,64 0 311,38
16/09/19 14,80 31,30 0,00 0,51 1 358,42
15/09/19 19,40 33,40 0,60 0,30 0 250,55
14/09/19 16,40 29,40 0,00 0,50 1 146,46
13/09/19 18,20 23,70 0,90 0,62 0 90,75
12/09/19 19,30 24,30 0,00 0,51 2 55,19
11/09/19 20,20 21,70 0,00 0,46 1 116,97
10/09/19 17,10 31,00 28,20 0,70 0 135,50
09/09/19 20,70 17,90 1,50 0,70 0 178,66
08/09/19 18,20 11,60 7,20 0,75 0 228,34
07/09/19 18,50 10,90 3,60 0,46 0 286,00
06/09/19 20,10 20,50 0,00 0,37 4 228,31
05/09/19 21,00 21,10 0,00 0,40 3 244,07
04/09/19 23,10 14,10 0,00 0,47 2 226,91
03/09/19 19,70 22,90 0,00 0,44 1 257,55
02/09/19 19,40 19,20 0,60 0,43 0 173,23
01/09/19 31,30 23,20 15,30 0,39 0 273,36
31/08/19 30,40 15,40 0,00 0,42 2 331,15
30/08/19 26,20 12,50 0,00 0,45 1 340,78
29/08/19 28,80 16,10 0,30 0,42 0 445,40
28/08/19 31,50 19,10 6,00 0,34 0 485,18
27/08/19 32,00 16,00 0,00 0,30 5 496,16
26/08/19 30,90 16,30 0,00 0,32 4 388,87
25/08/19 28,60 16,10 0,00 0,30 3 363,77
24/08/19 29,70 13,10 0,00 0,28 2 338,40
23/08/19 27,10 15,60 0,00 0,33 1 316,23
22/08/19 25,20 10,60 0,30 0,34 0 302,51
21/08/19 21,10 19,10 1,50 0,52 0 321,29
20/08/19 24,50 17,40 0,00 0,30 3 379,66
19/08/19 25,70 16,10 0,00 0,40 2 356,21
18/08/19 25,80 17,30 0,00 0,50 1 239,30
17/08/19 23,60 17,80 0,30 0,40 0 234,97
16/08/19 22,40 16,00 0,60 0,53 0 300,00
15/08/19 24,90 17,30 0,00 0,28 2 134,26
14/08/19 19,60 19,80 0,00 0,42 1 107,27
13/08/19 23,30 28,30 10,50 0,41 0 85,77
12/08/19 23,60 20,20 0,00 0,54 1 116,22
11/08/19 27,60 25,00 0,30 0,31 0 287,56
10/08/19 25,10 16,90 12,60 0,60 0 237,75
09/08/19 21,80 25,00 1,50 0,57 0 296,09
08/08/19 22,60 25,40 6,60 0,48 0 354,87
07/08/19 26,30 15,20 0,90 0,41 0 392,44
06/08/19 26,00 27,40 0,30 0,46 0 350,49
05/08/19 23,80 20,20 0,00 0,47 8 308,71
04/08/19 23,70 13,40 0,00 0,43 7 304,04
03/08/19 23,60 18,60 0,00 0,42 6 353,21
02/08/19 21,80 20,40 0,00 0,42 5 396,30
01/08/19 19,10 11,20 0,00 0,61 4 333,64
31/07/19 22,20 15,70 0,00 0,41 3 390,22
30/07/19 23,70 20,70 0,00 0,51 2 395,77
29/07/19 29,80 19,20 0,00 0,41 1 374,40
28/07/19 32,40 19,30 0,90 0,43 0 278,58
27/07/19 25,10 28,50 3,90 0,59 0 269,38
26/07/19 24,50 23,20 0,00 0,46 2 234,23
25/07/19 25,70 17,00 0,00 0,50 1 229,80
24/07/19 25,50 13,00 0,30 0,54 0 248,82
23/07/19 19,20 10,50 1,50 0,76 0 256,32
22/07/19 21,80 23,20 0,00 0,50 1 300,77
21/07/19 23,90 17,10 4,80 0,56 0 261,58
20/07/19 28,90 14,90 0,00 0,38 4 325,14
19/07/19 27,30 14,00 0,00 0,25 3 321,16
18/07/19 23,90 11,70 0,00 0,41 2 282,53
17/07/19 20,50 18,20 0,00 0,44 1 314,91
16/07/19 20,70 21,60 1,20 0,43 0 366,60
15/07/19 24,10 19,80 0,00 0,31 6 390,35
14/07/19 21,30 20,80 0,00 0,33 5 259,79
13/07/19 21,30 15,50 0,00 0,51 4 236,09
12/07/19 23,90 19,30 0,00 0,35 3 196,71
11/07/19 24,20 18,90 0,00 0,37 2 121,47
10/07/19 18,30 24,20 0,00 0,53 1 48,73
09/07/19 16,20 20,70 12,90 0,76 0 6,09
08/07/19 16,20 22,50 11,70 0,66 0 97,29
07/07/19 15,60 29,20 1,80 0,69 0 103,93
06/07/19 17,10 19,00 4,80 0,71 0 98,64
05/07/19 18,90 31,70 8,10 0,36 0 376,42
04/07/19 16,80 32,40 1,80 0,50 0 525,45
03/07/19 18,10 31,20 0,00 0,32 1 603,42
02/07/19 17,80 34,60 1,20 0,44 0 593,04
01/07/19 24,40 24,50 2,40 0,31 0 791,67
30/06/19 36,10 24,40 0,00 0,11 3 837,79
29/06/19 26,60 28,70 0,00 0,26 2 645,13
28/06/19 25,80 22,00 0,00 0,26 1 565,22
27/06/19 21,50 25,50 0,90 0,70 0 513,05
26/06/19 33,50 25,80 0,00 0,30 6 523,88
25/06/19 31,90 15,20 0,00 0,34 5 336,39
24/06/19 26,00 16,20 0,00 0,38 4 318,54
23/06/19 25,10 15,00 0,00 0,28 3 300,22
22/06/19 22,60 16,20 0,00 0,36 2 319,85
21/06/19 23,60 16,10 0,00 0,53 1 290,81
20/06/19 29,50 12,90 3,60 0,42 0 247,93
19/06/19 30,80 15,40 0,00 0,43 3 284,59
18/06/19 29,80 9,80 0,00 0,39 2 141,34
17/06/19 28,00 18,50 0,00 0,36 1 211,60
16/06/19 17,70 27,30 0,90 0,74 0 235,46
15/06/19 28,80 30,90 9,00 0,40 0 170,12
14/06/19 27,70 12,60 0,00 0,31 1 270,79
13/06/19 25,10 21,70 8,10 0,60 0 139,69
12/06/19 34,50 16,10 0,00 0,31 1 206,36
11/06/19 33,60 14,70 0,30 0,44 0 306,29
10/06/19 27,80 29,90 22,80 0,46 0 381,83
09/06/19 26,10 17,80 0,00 0,30 1 462,75
08/06/19 26,00 30,80 12,00 0,53 0 530,04
07/06/19 24,30 12,90 5,40 0,62 0 568,35
06/06/19 31,60 22,00 0,00 0,33 5 502,68
05/06/19 32,20 18,80 0,00 0,33 4 416,68
04/06/19 34,10 14,60 0,00 0,23 3 381,21
03/06/19 33,50 16,60 0,00 0,30 2 305,62
02/06/19 26,70 12,60 0,00 0,31 1 199,94
01/06/19 24,40 19,60 6,60 0,50 0 158,09
31/05/19 20,10 22,50 0,30 0,51 0 192,74
30/05/19 23,50 18,70 0,00 0,20 2 180,27
29/05/19 15,50 19,90 0,00 0,35 1 197,17
28/05/19 13,00 15,60 9,90 0,80 0 187,77
27/05/19 17,80 25,60 1,20 0,62 0 265,77
26/05/19 17,00 28,80 0,00 0,51 5 304,71
25/05/19 14,10 24,70 0,00 0,53 4 249,15
24/05/19 22,70 15,50 0,00 0,31 3 210,87
23/05/19 15,90 21,40 0,00 0,56 2 151,00
22/05/19 25,50 15,70 0,00 0,40 1 116,05
21/05/19 25,00 17,00 0,30 0,50 0 53,72
20/05/19 25,00 18,10 3,90 0,62 0 21,73
19/05/19 21,40 12,00 1,20 0,71 0 62,18
18/05/19 23,60 13,60 3,00 0,59 0 101,77
17/05/19 18,50 14,60 15,60 0,77 0 112,81
16/05/19 17,00 26,90 3,90 0,64 0 153,73
15/05/19 12,40 32,60 4,80 0,49 0 199,75
14/05/19 10,50 31,40 0,00 0,33 4 179,85
13/05/19 11,00 21,20 0,00 0,42 3 177,26
12/05/19 12,70 13,00 0,00 0,41 2 192,41
11/05/19 15,40 14,30 0,00 0,46 1 207,15
10/05/19 19,40 15,40 0,30 0,41 0 212,49
09/05/19 15,30 20,30 1,20 0,46 0 235,04
08/05/19 16,90 18,20 0,00 0,26 1 261,75
07/05/19 11,70 26,30 0,30 0,33 0 209,01
06/05/19 12,30 19,40 0,00 0,31 3 228,96
05/05/19 12,30 16,90 0,00 0,31 2 251,35
04/05/19 10,40 26,70 0,00 0,34 1 280,67
03/05/19 10,10 30,20 0,90 0,40 0 235,29
02/05/19 10,20 44,50 2,70 0,62 0 247,62
01/05/19 16,70 24,60 0,30 0,30 0 303,54
30/04/19 17,10 20,30 0,00 0,22 1 326,05
29/04/19 16,10 28,10 0,90 0,38 0 360,49
28/04/19 11,80 19,20 3,60 0,82 0 452,34
27/04/19 17,00 25,90 0,00 0,64 30 545,34
26/04/19 27,30 15,40 0,00 0,31 29 585,51
25/04/19 27,30 17,90 0,00 0,33 28 578,14
24/04/19 20,70 29,30 0,00 0,32 27 557,40
23/04/19 19,50 39,20 0,00 0,15 26 531,87
22/04/19 19,60 21,90 0,00 0,32 25 437,23
21/04/19 17,20 23,20 0,00 0,15 24 425,71
20/04/19 16,60 24,00 0,00 0,22 23 385,76
19/04/19 19,60 18,90 0,00 0,22 22 358,27
18/04/19 18,30 21,60 0,00 0,20 21 311,69
17/04/19 17,10 18,80 0,00 0,22 20 253,95
16/04/19 12,50 25,70 0,00 0,23 19 205,79
15/04/19 10,10 22,80 0,00 0,32 18 168,93
14/04/19 9,70 26,20 0,00 0,30 17 149,45
13/04/19 5,70 23,50 0,00 0,50 16 136,27
12/04/19 3,60 20,80 0,00 0,52 15 168,78
11/04/19 3,20 16,10 0,00 0,60 14 211,41
10/04/19 6,00 21,20 0,00 0,46 13 255,53
09/04/19 5,90 19,40 0,00 0,45 12 298,08
08/04/19 10,60 24,50 0,00 0,49 11 344,59
07/04/19 17,30 17,90 0,00 0,22 10 374,34
06/04/19 19,10 18,20 0,00 0,26 9 346,65
05/04/19 19,40 18,00 0,00 0,32 8 326,32
04/04/19 17,60 23,10 0,00 0,30 7 324,01
03/04/19 16,00 26,50 0,00 0,30 6 287,62
02/04/19 12,20 27,60 0,00 0,20 5 249,61
01/04/19 10,90 13,60 0,00 0,20 4 185,97
31/03/19 8,40 28,90 0,00 0,37 3 187,47
30/03/19 17,30 23,10 0,00 0,41 2 170,51
29/03/19 11,60 25,80 0,00 0,58 1 139,83
28/03/19 12,30 22,10 0,30 0,52 0 150,30
27/03/19 7,70 20,60 1,50 0,51 0 170,21
26/03/19 5,20 32,90 0,60 0,47 0 180,28
25/03/19 7,90 18,90 0,00 0,40 3 152,46
24/03/19 8,20 19,40 0,00 0,43 2 127,32
23/03/19 16,50 23,30 0,00 0,53 1 102,30
22/03/19 13,30 22,40 0,60 0,42 0 60,28
21/03/19 10,40 30,40 0,00 0,73 1 21,67
20/03/19 10,20 28,60 1,50 0,33 0 23,81
19/03/19 7,00 25,50 1,20 0,41 0 15,06
18/03/19 7,30 34,50 2,10 0,60 0 39,04
17/03/19 11,70 27,10 4,20 0,59 0 64,23
16/03/19 5,80 37,80 9,60 0,71 0 76,14
15/03/19 6,30 28,00 10,50 0,77 0 53,07
14/03/19 7,70 29,30 4,50 0,52 0 84,17
13/03/19 7,40 25,80 0,90 0,53 0 48,97
12/03/19 5,80 22,10 0,00 0,41 2 51,73
11/03/19 5,10 19,40 0,00 0,40 1 47,14
10/03/19 6,00 43,90 10,50 0,59 0 36,91
09/03/19 6,30 31,70 5,40 0,56 0 34,57
08/03/19 7,40 41,80 5,10 0,51 0 39,75
07/03/19 12,30 20,00 0,60 0,55 0 44,24
06/03/19 6,90 15,20 3,60 0,70 0 39,85
05/03/19 6,40 43,80 13,80 0,65 0 69,12
04/03/19 12,30 51,90 7,20 0,61 0 130,09
03/03/19 8,30 23,40 4,50 0,68 0 148,63
02/03/19 5,10 17,90 0,00 0,41 9 161,65
01/03/19 4,20 19,20 0,00 0,47 8 178,99
28/02/19 7,40 23,80 0,00 0,51 7 177,73
27/02/19 12,50 25,80 0,00 0,31 6 166,66
26/02/19 8,50 24,30 0,00 0,45 5 100,23
25/02/19 3,90 19,90 0,00 0,62 4 69,60
24/02/19 10,00 18,80 0,00 0,20 3 56,39
23/02/19 1,50 18,10 0,00 0,33 2 26,89
22/02/19 -0,70 20,80 0,00 0,42 1 40,98
21/02/19 6,00 22,10 15,90 0,81 0 72,20
20/02/19 5,10 24,80 1,20 0,70 0 83,39
19/02/19 8,40 24,80 2,10 0,59 0 96,36
18/02/19 8,20 13,30 0,00 0,71 5 105,16
17/02/19 8,30 18,80 0,00 0,57 4 108,47
16/02/19 13,00 20,80 0,00 0,30 3 77,10
15/02/19 5,70 20,90 0,00 0,81 2 32,57
14/02/19 5,70 22,70 0,00 0,80 1 39,12
13/02/19 6,10 33,20 0,90 0,76 0 41,78
12/02/19 2,10 24,80 0,00 0,64 1 49,25
11/02/19 5,10 21,80 6,90 0,78 0 38,36
10/02/19 6,90 23,10 3,30 0,69 0 51,33
09/02/19 4,80 23,30 0,60 0,63 0 54,44
08/02/19 6,30 19,60 0,00 0,68 1 48,76
07/02/19 4,30 13,20 0,60 0,60 0 42,28
06/02/19 3,80 18,70 2,40 0,70 0 43,84
05/02/19 2,10 20,30 0,60 0,70 0 42,83
04/02/19 2,00 20,70 0,30 0,65 0 38,04
03/02/19 2,50 23,20 0,00 0,76 1 34,52
02/02/19 3,00 21,40 0,30 0,80 0 25,37
01/02/19 0,30 17,30 0,00 0,73 2 25,81
31/01/19 0,90 11,60 0,00 0,77 1 23,37
30/01/19 1,90 9,20 0,30 0,70 0 21,53
29/01/19 1,90 17,70 0,30 0,77 0 21,35
28/01/19 1,80 11,00 3,90 0,84 0 24,20
27/01/19 1,00 14,40 0,00 0,74 9 35,69
26/01/19 -2,40 12,20 0,00 0,64 8 36,49
25/01/19 -5,00 9,40 0,00 0,65 7 37,24
24/01/19 -6,10 14,00 0,00 0,64 6 38,71
23/01/19 -3,00 17,10 0,00 0,55 5 46,39
22/01/19 -2,20 11,40 0,00 0,68 4 38,07
21/01/19 -0,40 19,60 0,00 0,71 3 33,35
20/01/19 0,20 16,00 0,00 0,69 2 25,63
19/01/19 0,90 14,50 0,00 0,73 1 18,48
18/01/19 2,80 23,00 0,30 0,64 0 12,37
17/01/19 4,80 24,00 3,00 0,72 0 5,78
16/01/19 5,50 25,90 2,70 0,79 0 14,67
15/01/19 4,40 32,80 3,30 0,55 0 29,69
14/01/19 4,30 32,80 2,70 0,50 0 36,29
13/01/19 5,00 21,90 10,50 0,86 0 28,46
12/01/19 2,90 20,20 1,80 0,82 0 35,96
11/01/19 2,40 22,40 0,30 0,70 0 38,51
10/01/19 1,20 21,90 0,00 0,74 1 29,75
09/01/19 1,90 19,00 0,90 0,80 0 21,16
08/01/19 3,10 16,40 0,90 0,84 0 30,82
07/01/19 1,20 18,20 0,00 0,73 2 28,81
06/01/19 0,50 13,90 0,00 0,70 1 21,26
05/01/19 3,50 25,50 2,10 0,79 0 30,09
04/01/19 3,10 17,40 1,50 0,60 0 20,29
03/01/19 -0,60 31,40 0,30 0,59 0 14,98
02/01/19 2,90 33,50 3,00 0,75 0 16,74
01/01/19 6,30 38,10 14,10 0,73 0 16,99
31/12/18 3,20 22,90 0,00 0,69 1 32,41
30/12/18 5,80 22,30 6,30 0,85 0 28,68
29/12/18 6,10 19,10 1,80 0,82 0 33,28
28/12/18 6,50 27,00 0,90 0,80 0 32,30
27/12/18 6,60 23,60 3,60 0,83 0 23,50
26/12/18 4,80 23,40 0,00 0,75 1 20,60
25/12/18 4,60 19,00 0,90 0,81 0 12,79
24/12/18 0,30 11,40 0,00 0,76 2 14,16
23/12/18 1,70 9,10 0,00 0,82 1 14,89
22/12/18 2,40 20,10 7,80 0,81 0 15,08
21/12/18 1,80 10,60 2,40 0,83 0 17,84
20/12/18 -0,70 12,80 0,00 0,78 7 26,10
CumulusUtils Version 2.0.2 - generated at 10/12/2019 00:47 - © Hans Rottier
Science background here. - NOTE: Behavioural testing still under way!
Prediction courtesy of https://www.yourweather.co.uk/



MAPA STACJI
Stacje pogodowe używające aplikacji 'Cumulusutils'"